N6WT Weather Reports


Display with metric or nautical units.
time (UTC)temp
F
wind
direction
speed
MPH
gust
MPH
rain 1hr
in
rain 24hr
in
rain mn
in
humidity
%
barometer
mb
20260506154517 61 343 4.0 9.0 0.00 0.00 0.00 73 1019.2
20260506154019 61 336 5.0 9.0 0.00 0.00 0.00 75 1019.3
20260506153514 60 315 3.0 6.0 0.00 0.00 0.00 78 1019.3
20260506153013 59 5 1.0 6.0 0.00 0.00 0.00 81 1019.3
20260506152512 58 322 2.0 4.0 0.00 0.00 0.00 85 1019.4
20260506152010 57 11 2.0 4.0 0.00 0.00 0.00 88 1019.5
20260506151509 55 15 0.0 3.0 0.00 0.00 0.00 91 1019.5
20260506151007 54 32 0.0 2.0 0.00 0.00 0.00 93 1019.4
20260506150506 52 85 0.0 2.0 0.00 0.00 0.00 94 1019.5
20260506150005 51 127 0.0 2.0 0.00 0.00 0.00 94 1019.5
20260506145502 51 127 0.0 2.0 0.00 0.00 0.00 94 1019.6
20260506145002 50 127 0.0 2.0 0.00 0.00 0.00 95 1019.5
20260506144600 50 127 0.0 2.0 0.00 0.00 0.00 95 1019.5
20260506144059 49 99 0.0 1.0 0.00 0.00 0.00 96 1019.6
20260506143558 48 99 0.0 2.0 0.00 0.00 0.00 96 1019.6
20260506143057 48 99 0.0 2.0 0.00 0.00 0.00 96 1019.5
20260506142556 47 99 0.0 2.0 0.00 0.00 0.00 96 1019.5
20260506142059 46 99 0.0 2.0 0.00 0.00 0.00 96 1019.5
20260506141555 45 116 0.0 2.0 0.00 0.00 0.00 95 1019.3
20260506141054 45 116 0.0 2.0 0.00 0.00 0.00 96 1019.3
20260506140554 44 116 0.0 2.0 0.00 0.00 0.00 96 1019.3
20260506140052 44 116 0.0 2.0 0.00 0.00 0.00 96 1019.2
20260506135550 43 116 0.0 2.0 0.00 0.00 0.00 95 1019.3
20260506135049 43 116 0.0 2.0 0.00 0.00 0.00 95 1019.2
20260506134549 43 74 0.0 2.0 0.00 0.00 0.00 95 1019.1
20260506134048 42 42 0.0 1.0 0.00 0.00 0.00 95 1019.2
20260506133548 42 42 0.0 1.0 0.00 0.00 0.00 95 1019.2
20260506133047 42 117 0.0 2.0 0.00 0.00 0.00 95 1019.2
20260506132545 42 117 0.0 2.0 0.00 0.00 0.00 95 1019.2
20260506132045 42 350 0.0 2.0 0.00 0.00 0.00 95 1019.0
20260506131551 42 316 0.0 2.0 0.00 0.00 0.00 95 1019.0
20260506131043 42 316 0.0 3.0 0.00 0.00 0.00 95 1019.0
20260506130542 42 317 0.0 3.0 0.00 0.00 0.00 94 1018.9
20260506130058 42 300 0.0 0.0 0.00 0.00 0.00 94 1019.0
20260506125539 42 300 0.0 0.0 0.00 0.00 0.00 95 1018.9
20260506125039 42 300 0.0 0.0 0.00 0.00 0.00 94 1018.9
20260506124538 42 300 0.0 0.0 0.00 0.00 0.00 94 1018.8
20260506124038 42 300 0.0 0.0 0.00 0.00 0.00 94 1018.9
20260506123538 42 300 0.0 0.0 0.00 0.00 0.00 94 1019.0
20260506123040 42 300 0.0 0.0 0.00 0.00 0.00 94 1018.9
20260506122540 43 300 0.0 0.0 0.00 0.00 0.00 94 1019.0
20260506122037 43 300 0.0 0.0 0.00 0.00 0.00 94 1019.0
20260506121536 43 300 0.0 0.0 0.00 0.00 0.00 94 1019.0
20260506121036 43 300 0.0 0.0 0.00 0.00 0.00 94 1019.0
20260506120536 43 300 0.0 0.0 0.00 0.00 0.00 94 1018.9
20260506120036 43 300 0.0 0.0 0.00 0.00 0.00 94 1019.0
20260506115535 43 300 0.0 0.0 0.00 0.00 0.00 94 1019.0
20260506115034 43 300 0.0 0.0 0.00 0.00 0.00 94 1018.9
20260506114538 43 300 0.0 0.0 0.00 0.00 0.00 94 1018.9
20260506114034 43 300 0.0 0.0 0.00 0.00 0.00 94 1018.9
20260506113533 43 300 0.0 0.0 0.00 0.00 0.00 94 1019.0
20260506113037 44 300 0.0 0.0 0.00 0.00 0.00 94 1018.9
20260506112531 44 300 0.0 0.0 0.00 0.00 0.00 94 1018.9
20260506112035 44 300 0.0 0.0 0.00 0.00 0.00 94 1018.9
20260506111531 44 300 0.0 0.0 0.00 0.00 0.00 94 1018.8
20260506111030 44 300 0.0 0.0 0.00 0.00 0.00 94 1018.9
20260506110531 44 300 0.0 0.0 0.00 0.00 0.00 94 1018.8
20260506110030 44 300 0.0 0.0 0.00 0.00 0.00 94 1018.8
20260506105528 44 300 0.0 0.0 0.00 0.00 0.00 94 1018.9
20260506105031 45 300 0.0 0.0 0.00 0.00 0.00 94 1018.8
20260506104529 45 300 0.0 0.0 0.00 0.00 0.00 94 1018.8
20260506104026 45 300 0.0 0.0 0.00 0.00 0.00 94 1018.7
20260506103526 45 300 0.0 0.0 0.00 0.00 0.00 94 1018.8
20260506103033 45 300 0.0 0.0 0.00 0.00 0.00 94 1018.8
20260506102525 45 300 0.0 0.0 0.00 0.00 0.00 93 1018.8
20260506102024 45 300 0.0 0.0 0.00 0.00 0.00 94 1018.8
20260506101539 46 300 0.0 0.0 0.00 0.00 0.00 93 1018.8
20260506101024 46 268 0.0 0.0 0.00 0.00 0.00 94 1018.8
20260506100524 46 268 0.0 0.0 0.00 0.00 0.00 94 1018.8
20260506100024 46 268 0.0 0.0 0.00 0.00 0.00 94 1018.8
20260506095525 46 268 0.0 0.0 0.00 0.00 0.00 94 1018.8
20260506095026 46 268 0.0 0.0 0.00 0.00 0.00 94 1018.8
20260506094525 46 268 0.0 0.0 0.00 0.00 0.00 94 1018.8
20260506094026 45 268 0.0 0.0 0.00 0.00 0.00 94 1018.8
20260506093522 45 268 0.0 0.0 0.00 0.00 0.00 93 1018.9
20260506093027 45 268 0.0 0.0 0.00 0.00 0.00 92 1018.9
20260506092521 46 233 0.0 0.0 0.00 0.00 0.00 93 1018.9
20260506092021 46 233 0.0 0.0 0.00 0.00 0.00 94 1018.8
20260506091521 46 233 0.0 0.0 0.00 0.00 0.00 94 1018.9
20260506091024 46 233 0.0 0.0 0.00 0.00 0.00 94 1018.9
20260506090520 46 233 0.0 0.0 0.00 0.00 0.00 93 1018.9
20260506090020 46 233 0.0 0.0 0.00 0.00 0.00 93 1018.8
20260506085521 46 233 0.0 0.0 0.00 0.00 0.00 92 1019.0
20260506085019 46 233 0.0 0.0 0.00 0.00 0.00 92 1019.0
20260506084519 46 233 0.0 0.0 0.00 0.00 0.00 92 1018.9
20260506084018 46 233 0.0 0.0 0.00 0.00 0.00 92 1019.0
20260506083517 46 233 0.0 0.0 0.00 0.00 0.00 93 1018.9
20260506083017 46 233 0.0 0.0 0.00 0.00 0.00 93 1019.0
20260506082518 46 233 0.0 0.0 0.00 0.00 0.00 93 1019.0
20260506082017 46 233 0.0 0.0 0.00 0.00 0.00 93 1019.1
20260506081515 46 233 0.0 0.0 0.00 0.00 0.00 92 1019.1
20260506081015 46 233 0.0 0.0 0.00 0.00 0.00 92 1019.0
20260506080514 47 233 0.0 0.0 0.00 0.00 0.00 91 1019.1
20260506073508 48 233 0.0 0.0 0.00 0.00 0.00 93 1018.8
20260506073016 48 233 0.0 0.0 0.00 0.00 0.00 93 1018.9
20260506072509 48 233 0.0 0.0 0.00 0.00 0.00 92 1018.8
20260506072007 48 233 0.0 0.0 0.00 0.00 0.00 92 1018.8
20260506071508 48 233 0.0 0.0 0.00 0.00 0.00 92 1018.7
20260506071008 48 233 0.0 0.0 0.00 0.00 0.00 91 1018.7
20260506070506 49 233 0.0 0.0 0.00 0.00 0.00 91 1018.7
20260506062100 50 233 0.0 0.0 0.00 0.00 0.00 90 1018.3
20260506061559 50 233 0.0 0.0 0.00 0.00 0.00 91 1018.2
20260506061058 50 233 0.0 0.0 0.00 0.00 0.00 90 1018.2
20260506060601 50 233 0.0 0.0 0.00 0.00 0.00 90 1018.2
20260506051055 51 211 0.0 0.0 0.00 0.00 0.00 88 1017.9
20260506050555 52 176 0.0 0.0 0.00 0.00 0.00 87 1017.9
20260506045052 52 159 0.0 0.0 0.00 0.00 0.00 87 1017.6
20260506044657 53 149 0.0 0.0 0.00 0.00 0.00 87 1017.5
20260506044055 53 146 0.0 3.0 0.00 0.00 0.00 86 1017.6
20260506043553 53 146 0.0 3.0 0.00 0.00 0.00 86 1017.5
20260506043052 53 86 1.0 3.0 0.00 0.00 0.00 86 1017.5
20260506042552 54 219 0.0 5.0 0.00 0.00 0.00 86 1017.4
20260506042051 54 213 2.0 5.0 0.00 0.00 0.00 86 1017.3
20260506041600 54 212 0.0 3.0 0.00 0.00 0.00 86 1017.3
20260506041049 54 322 1.0 5.0 0.00 0.00 0.00 86 1017.3
20260506040552 54 98 1.0 7.0 0.00 0.00 0.00 86 1017.2
20260506040048 54 277 4.0 9.0 0.00 0.00 0.00 85 1017.1
20260506035547 54 236 5.0 9.0 0.00 0.00 0.00 85 1017.0
20260506035047 54 304 2.0 8.0 0.00 0.00 0.00 84 1017.0
20260506034620 54 292 3.0 8.0 0.00 0.00 0.00 84 1016.9
20260506034046 54 237 3.0 7.0 0.00 0.00 0.00 84 1016.9
20260506033547 55 205 1.0 5.0 0.00 0.00 0.00 83 1016.9
20260506033045 55 173 2.0 8.0 0.00 0.00 0.00 83 1016.7
20260506032543 55 241 2.0 8.0 0.00 0.00 0.00 83 1016.6
20260506032043 55 277 0.0 5.0 0.00 0.00 0.00 82 1016.5
20260506031543 55 62 0.0 6.0 0.00 0.00 0.00 82 1016.4
20260506031042 55 343 1.0 6.0 0.00 0.00 0.00 81 1016.3
20260506030544 55 302 1.0 5.0 0.00 0.00 0.00 81 1016.2
20260506030040 55 39 0.0 3.0 0.00 0.00 0.00 80 1016.1
20260506025538 55 84 1.0 5.0 0.00 0.00 0.00 80 1016.1
20260506025041 56 341 1.0 5.0 0.00 0.00 0.00 79 1016.1
20260506024537 56 229 1.0 4.0 0.00 0.00 0.00 79 1016.0
20260506024036 56 172 1.0 4.0 0.00 0.00 0.00 78 1015.8
20260506023537 56 117 2.0 9.0 0.00 0.00 0.00 77 1015.8
20260506023049 56 32 1.0 9.0 0.00 0.00 0.00 77 1015.8
20260506022533 56 284 1.0 9.0 0.00 0.00 0.00 76 1015.8
20260506022033 57 277 2.0 4.0 0.00 0.00 0.00 75 1015.8
20260506021534 57 223 0.0 4.0 0.00 0.00 0.00 75 1015.8
20260506021034 57 312 2.0 4.0 0.00 0.00 0.00 74 1015.7
20260506020535 57 53 0.0 8.0 0.00 0.00 0.00 74 1015.6
20260506020031 57 142 0.0 5.0 0.00 0.00 0.00 73 1015.6
20260506015531 57 318 2.0 12.0 0.00 0.00 0.00 73 1015.4
20260506015034 58 277 5.0 14.0 0.00 0.00 0.00 73 1015.4
20260506014532 58 314 2.0 14.0 0.00 0.00 0.00 72 1015.4
20260506014030 58 240 2.0 10.0 0.00 0.00 0.00 71 1015.3
20260506013531 59 279 2.0 16.0 0.00 0.00 0.00 71 1015.2
20260506013029 59 281 2.0 9.0 0.00 0.00 0.00 70 1015.2
20260506012529 59 290 3.0 12.0 0.00 0.00 0.00 70 1015.2
20260506012028 59 284 3.0 16.0 0.00 0.00 0.00 69 1015.1
20260506011528 60 306 4.0 15.0 0.00 0.00 0.00 68 1015.1
20260506011029 60 28 2.0 15.0 0.00 0.00 0.00 68 1015.0
20260506010529 61 286 6.0 15.0 0.00 0.00 0.00 67 1015.1
20260506010028 61 325 2.0 12.0 0.00 0.00 0.00 67 1015.2
20260506005527 61 329 3.0 14.0 0.00 0.00 0.00 66 1015.2
20260506005028 61 325 6.0 14.0 0.00 0.00 0.00 67 1015.2
20260506004535 62 223 4.0 13.0 0.00 0.00 0.00 67 1015.1
20260506004027 62 334 5.0 13.0 0.00 0.00 0.00 66 1015.1
20260506003527 62 308 6.0 16.0 0.00 0.00 0.00 65 1015.1
20260506003038 63 318 6.0 16.0 0.00 0.00 0.00 63 1015.1
20260506002526 63 348 6.0 16.0 0.00 0.00 0.00 63 1015.0
20260506002026 63 339 7.0 16.0 0.00 0.00 0.00 63 1015.0
20260506001526 63 340 8.0 16.0 0.00 0.00 0.00 62 1014.9
20260506001026 64 28 7.0 16.0 0.00 0.00 0.00 61 1015.0
20260506000526 64 340 9.0 16.0 0.00 0.00 0.00 62 1014.8
20260506000026 64 324 10.0 15.0 0.00 0.00 0.00 61 1014.9
20260505235524 63 290 8.0 17.0 0.00 0.00 0.00 61 1014.9
20260505235024 64 329 8.0 18.0 0.00 0.00 0.00 62 1014.8
20260505234534 64 348 8.0 18.0 0.00 0.00 0.00 61 1014.8
20260505234029 64 346 7.0 21.0 0.00 0.00 0.00 60 1015.0
20260505233527 64 345 8.0 21.0 0.00 0.00 0.00 60 1015.0
20260505233023 64 304 9.0 16.0 0.00 0.00 0.00 59 1014.9
20260505232522 63 237 7.0 17.0 0.00 0.00 0.00 59 1015.0
20260505232023 64 347 8.0 16.0 0.00 0.00 0.00 59 1015.0
20260505231523 64 24 8.0 18.0 0.00 0.00 0.00 58 1015.0
20260505231023 64 23 6.0 15.0 0.00 0.00 0.00 57 1015.1
20260505230521 64 331 5.0 15.0 0.00 0.00 0.00 57 1015.0
20260505230021 64 322 6.0 16.0 0.00 0.00 0.00 57 1015.1
20260505225524 64 327 6.0 16.0 0.00 0.00 0.00 57 1015.1
20260505225020 63 322 5.0 15.0 0.00 0.00 0.00 57 1015.2
20260505224520 63 355 2.0 16.0 0.00 0.00 0.00 57 1015.3
20260505224019 63 347 7.0 18.0 0.00 0.00 0.00 56 1015.3
20260505223518 64 335 6.0 18.0 0.00 0.00 0.00 57 1015.3
20260505223018 64 312 6.0 16.0 0.00 0.00 0.00 57 1015.4
20260505222522 64 337 7.0 16.0 0.00 0.00 0.00 57 1015.4
20260505222019 64 330 8.0 18.0 0.00 0.00 0.00 56 1015.4
20260505221519 64 324 6.0 18.0 0.00 0.00 0.00 55 1015.4
20260505221018 64 332 5.0 18.0 0.00 0.00 0.00 55 1015.4
20260505220518 64 293 5.0 18.0 0.00 0.00 0.00 55 1015.4
20260505220027 64 338 7.0 18.0 0.00 0.00 0.00 53 1015.5
20260505215516 64 34 6.0 19.0 0.00 0.00 0.00 55 1015.6
20260505215016 63 355 9.0 19.0 0.00 0.00 0.00 55 1015.7
20260505214522 63 340 6.0 20.0 0.00 0.00 0.00 55 1015.8
20260505214015 63 30 11.0 20.0 0.00 0.00 0.00 56 1016.0
20260505213515 63 5 8.0 18.0 0.00 0.00 0.00 57 1016.0
20260505213015 62 25 4.0 19.0 0.00 0.00 0.00 58 1016.0
20260505212517 62 321 9.0 20.0 0.00 0.00 0.00 58 1016.0
20260505212018 63 5 9.0 18.0 0.00 0.00 0.00 57 1016.0
20260505211515 64 321 11.0 17.0 0.00 0.00 0.00 55 1016.1
20260505211016 65 319 6.0 16.0 0.00 0.00 0.00 56 1015.8
20260505210514 66 325 8.0 14.0 0.00 0.00 0.00 55 1015.8
20260505210013 65 41 5.0 12.0 0.00 0.00 0.00 57 1015.7
20260505205511 65 15 5.0 11.0 0.00 0.00 0.00 57 1015.8
20260505205011 64 282 3.0 14.0 0.00 0.00 0.00 58 1015.7
20260505204511 64 10 8.0 14.0 0.00 0.00 0.00 58 1015.8
20260505204012 63 307 2.0 16.0 0.00 0.00 0.00 61 1015.8
20260505203510 62 340 3.0 16.0 0.00 0.00 0.00 62 1015.9
20260505203009 62 89 5.0 10.0 0.00 0.00 0.00 64 1015.9
20260505202509 61 254 3.0 10.0 0.00 0.00 0.00 64 1015.8
20260505202012 61 333 2.0 12.0 0.00 0.00 0.00 65 1016.0
20260505201512 61 206 6.0 12.0 0.00 0.00 0.00 64 1015.9
20260505201109 61 143 4.0 18.0 0.00 0.00 0.00 65 1015.9
20260505200509 62 123 6.0 18.0 0.00 0.00 0.00 64 1015.9
20260505200008 62 205 3.0 10.0 0.00 0.00 0.00 64 1015.9
20260505195507 62 287 3.0 12.0 0.00 0.00 0.00 63 1016.0
20260505195016 63 101 1.0 17.0 0.00 0.00 0.00 63 1015.9
20260505194522 63 355 4.0 14.0 0.00 0.00 0.00 62 1016.0
20260505194007 64 342 9.0 14.0 0.00 0.00 0.00 60 1016.1
20260505193506 64 319 2.0 10.0 0.00 0.00 0.00 61 1015.9
20260505193021 63 97 0.0 10.0 0.00 0.00 0.00 62 1015.9
20260505192507 63 193 1.0 7.0 0.00 0.00 0.00 62 1015.9
20260505192007 62 67 0.0 12.0 0.00 0.00 0.00 62 1015.9
20260505191506 63 290 6.0 12.0 0.00 0.00 0.00 60 1016.1
20260505191009 63 227 1.0 17.0 0.00 0.00 0.00 62 1016.1
20260505190507 63 298 3.0 17.0 0.00 0.00 0.00 61 1016.0
20260505190007 63 355 4.0 10.0 0.00 0.00 0.00 61 1015.9
20260505185507 63 127 4.0 10.0 0.00 0.00 0.00 63 1015.9
20260505185004 63 306 2.0 10.0 0.00 0.00 0.00 60 1016.0
20260505184506 64 288 5.0 10.0 0.00 0.00 0.00 58 1016.1
20260505184004 63 5 1.0 8.0 0.00 0.00 0.00 59 1016.0
20260505183502 63 328 2.0 10.0 0.00 0.00 0.00 58 1016.1
20260505183002 63 300 3.0 10.0 0.00 0.00 0.00 60 1016.1
20260505182502 63 91 2.0 5.0 0.00 0.00 0.00 60 1016.1
20260505182000 63 5 2.0 5.0 0.00 0.00 0.00 62 1016.1
20260505181601 62 71 2.0 8.0 0.00 0.00 0.00 62 1016.1
20260505181103 61 42 3.0 8.0 0.00 0.00 0.00 63 1016.1
20260505180558 61 207 0.0 4.0 0.00 0.00 0.00 64 1016.1
20260505180103 60 227 1.0 9.0 0.00 0.00 0.00 65 1016.1
20260505175558 60 15 1.0 9.0 0.00 0.00 0.00 65 1016.1
20260505175100 60 269 1.0 9.0 0.00 0.00 0.00 65 1016.1
20260505174612 61 298 5.0 8.0 0.00 0.00 0.00 63 1016.1
20260505174057 62 325 4.0 8.0 0.00 0.00 0.00 63 1016.1
20260505173555 61 340 2.0 6.0 0.00 0.00 0.00 64 1016.0
20260505173054 61 92 1.0 10.0 0.00 0.00 0.00 66 1016.0
20260505172557 60 144 3.0 9.0 0.00 0.00 0.00 65 1015.8
20260505172052 60 50 2.0 11.0 0.00 0.00 0.00 66 1015.8
20260505171551 60 315 6.0 11.0 0.00 0.00 0.00 65 1015.9
20260505171050 59 231 2.0 9.0 0.00 0.00 0.00 65 1015.9
20260505170550 59 302 5.0 9.0 0.00 0.00 0.00 66 1016.0
20260505170123 59 342 1.0 5.0 0.00 0.00 0.00 66 1016.0
20260505165550 59 360 0.0 5.0 0.00 0.00 0.00 65 1016.0
20260505165049 59 360 0.0 6.0 0.00 0.00 0.00 66 1016.0
20260505164550 59 34 1.0 6.0 0.00 0.00 0.00 67 1016.0
20260505164048 59 344 0.0 4.0 0.00 0.00 0.00 67 1016.1
20260505163546 59 52 0.0 4.0 0.00 0.00 0.00 67 1016.1
20260505163047 58 277 0.0 4.0 0.00 0.00 0.00 67 1016.1
20260505162546 58 58 0.0 3.0 0.00 0.00 0.00 68 1016.1
20260505162045 58 15 0.0 3.0 0.00 0.00 0.00 69 1016.1
20260505161553 58 92 0.0 3.0 0.00 0.00 0.00 70 1015.9
20260505161042 57 46 0.0 3.0 0.00 0.00 0.00 71 1015.9
20260505160545 57 265 0.0 4.0 0.00 0.00 0.00 70 1016.0